SND18 YSSY-YBBN

Flight info

Callsign SND18
Flight time 1h 10m
Altitude 37000
Route OLSEM1/34R OLSEM Y193 BANDA H252 BN
Aircraft A319/M-SDE3FGHIRWY/LB1

Departure

Time 2026-04-25 13:16
Airport Sydney Kingsford Smith International Airport (YSSY)

Arrival

Time 2026-04-25 14:26
Airport Brisbane International Airport (YBBN)
Time Latitude Longitude Altitude Speed Heading
2026-04-25 12:52 -33.93478 151.18832 26 ft 0 kts 238°
2026-04-25 13:03 -33.93479 151.18831 26 ft 0 kts 234°
2026-04-25 13:03 -33.93484 151.18828 26 ft 0 kts 208°
2026-04-25 13:03 -33.93488 151.18826 26 ft 2 kts 194°
2026-04-25 13:04 -33.93514 151.18826 26 ft 5 kts 169°
2026-04-25 13:04 -33.93557 151.18837 25 ft 7 kts 178°
2026-04-25 13:04 -33.93599 151.18797 25 ft 9 kts 250°
2026-04-25 13:04 -33.93621 151.18712 25 ft 11 kts 255°
2026-04-25 13:05 -33.93644 151.18611 25 ft 13 kts 254°
2026-04-25 13:05 -33.93671 151.18495 24 ft 15 kts 254°
2026-04-25 13:05 -33.93702 151.18370 24 ft 16 kts 255°
2026-04-25 13:05 -33.93734 151.18230 23 ft 17 kts 255°
2026-04-25 13:06 -33.93769 151.18080 22 ft 19 kts 254°
2026-04-25 13:06 -33.93808 151.17920 20 ft 20 kts 254°
2026-04-25 13:06 -33.93843 151.17786 19 ft 12 kts 224°
2026-04-25 13:06 -33.93914 151.17783 20 ft 11 kts 167°
2026-04-25 13:07 -33.93995 151.17807 20 ft 12 kts 164°
2026-04-25 13:07 -33.94087 151.17827 20 ft 14 kts 170°
2026-04-25 13:07 -33.94186 151.17853 21 ft 15 kts 167°
2026-04-25 13:07 -33.94291 151.17880 21 ft 15 kts 168°
2026-04-25 13:08 -33.94403 151.17909 22 ft 16 kts 168°
2026-04-25 13:08 -33.94515 151.17882 23 ft 17 kts 186°
2026-04-25 13:08 -33.94633 151.17912 23 ft 17 kts 168°
2026-04-25 13:08 -33.94758 151.17944 23 ft 18 kts 168°
2026-04-25 13:09 -33.94887 151.17978 23 ft 19 kts 168°
2026-04-25 13:09 -33.95021 151.18013 22 ft 19 kts 168°
2026-04-25 13:09 -33.95106 151.18077 22 ft 15 kts 99°
2026-04-25 13:09 -33.95085 151.18205 22 ft 16 kts 77°
2026-04-25 13:10 -33.95059 151.18344 22 ft 17 kts 78°
2026-04-25 13:10 -33.95054 151.18486 22 ft 14 kts 124°
2026-04-25 13:10 -33.95101 151.18529 22 ft 6 kts 144°
2026-04-25 13:10 -33.95142 151.18571 21 ft 9 kts 137°
2026-04-25 13:11 -33.95204 151.18642 21 ft 17 kts 137°
2026-04-25 13:11 -33.95314 151.18720 20 ft 19 kts 163°
2026-04-25 13:11 -33.95448 151.18756 20 ft 20 kts 168°
2026-04-25 13:11 -33.95588 151.18791 19 ft 20 kts 168°
2026-04-25 13:12 -33.95734 151.18831 19 ft 21 kts 168°
2026-04-25 13:12 -33.95881 151.18867 19 ft 21 kts 168°
2026-04-25 13:12 -33.96032 151.18907 19 ft 22 kts 168°
2026-04-25 13:12 -33.96131 151.18933 19 ft 22 kts 167°
2026-04-25 13:13 -33.96337 151.18986 18 ft 22 kts 168°
2026-04-25 13:13 -33.96493 151.19026 18 ft 22 kts 168°
2026-04-25 13:13 -33.96649 151.19067 18 ft 23 kts 168°
2026-04-25 13:13 -33.96809 151.19066 18 ft 23 kts 180°
2026-04-25 13:14 -33.96967 151.19106 17 ft 23 kts 167°
2026-04-25 13:14 -33.97105 151.19147 17 ft 15 kts 151°
2026-04-25 13:14 -33.97128 151.19240 17 ft 7 kts 78°
2026-04-25 13:14 -33.97125 151.19257 17 ft 1 kts 76°
2026-04-25 13:15 -33.97111 151.19319 17 ft 12 kts 76°
2026-04-25 13:15 -33.97064 151.19376 17 ft 8 kts 353°
2026-04-25 13:15 -33.97047 151.19373 17 ft 16 kts 348°
2026-04-25 13:15 -33.96663 151.19273 17 ft 93 kts 347°
2026-04-25 13:16 -33.95804 151.19049 23 ft 153 kts 347°
2026-04-25 13:16 -33.94704 151.18755 472 ft 167 kts 348°
2026-04-25 13:16 -33.93607 151.18590 1339 ft 158 kts 11°
2026-04-25 13:16 -33.92767 151.19226 2192 ft 151 kts 53°
2026-04-25 13:17 -33.92316 151.20479 2645 ft 173 kts 62°
2026-04-25 13:17 -33.91489 151.21568 3116 ft 190 kts 32°
2026-04-25 13:17 -33.90282 151.22376 3680 ft 209 kts 28°
2026-04-25 13:17 -33.88943 151.23241 4300 ft 228 kts 30°
2026-04-25 13:18 -33.87529 151.24222 4924 ft 247 kts 31°
2026-04-25 13:18 -33.86003 151.25337 5673 ft 262 kts 33°
2026-04-25 13:18 -33.84455 151.26517 6610 ft 268 kts 37°
2026-04-25 13:18 -33.83215 151.28125 7537 ft 271 kts 60°
2026-04-25 13:19 -33.82522 151.30229 8513 ft 274 kts 73°
2026-04-25 13:19 -33.82002 151.32404 9403 ft 277 kts 73°
2026-04-25 13:19 -33.81469 151.34630 10247 ft 281 kts 73°
2026-04-25 13:19 -33.81084 151.36142 10677 ft 289 kts 70°
2026-04-25 13:20 -33.79626 151.38945 11401 ft 306 kts 51°
2026-04-25 13:20 -33.78238 151.40883 12131 ft 312 kts 50°
2026-04-25 13:20 -33.76803 151.42873 12914 ft 315 kts 50°
2026-04-25 13:20 -33.75387 151.44882 13649 ft 320 kts 51°
2026-04-25 13:21 -33.73969 151.46936 14361 ft 324 kts 52°
2026-04-25 13:21 -33.72533 151.49040 15063 ft 327 kts 52°
2026-04-25 13:21 -33.71111 151.51138 15753 ft 331 kts 52°
2026-04-25 13:21 -33.69651 151.53294 16451 ft 334 kts 52°
2026-04-25 13:22 -33.68180 151.55470 17110 ft 337 kts 52°
2026-04-25 13:22 -33.66716 151.57636 17755 ft 340 kts 52°
2026-04-25 13:22 -33.65107 151.59757 18415 ft 344 kts 46°
2026-04-25 13:23 -33.61288 151.63284 19666 ft 353 kts 36°
2026-04-25 13:23 -33.59238 151.64894 20262 ft 357 kts 36°
2026-04-25 13:23 -33.57132 151.66536 20854 ft 360 kts 35°
2026-04-25 13:23 -33.55045 151.68166 21432 ft 364 kts 35°
2026-04-25 13:24 -33.52908 151.69838 21999 ft 367 kts 36°
2026-04-25 13:24 -33.50715 151.71446 22533 ft 372 kts 31°
2026-04-25 13:24 -33.48355 151.72763 23061 ft 378 kts 24°
2026-04-25 13:24 -33.45847 151.73753 23584 ft 383 kts 18°
2026-04-25 13:25 -33.43271 151.74597 24106 ft 387 kts 17°
2026-04-25 13:25 -33.40668 151.75424 24606 ft 390 kts 17°
2026-04-25 13:25 -33.38031 151.76265 25099 ft 393 kts 18°
2026-04-25 13:25 -33.35372 151.77119 25574 ft 397 kts 18°
2026-04-25 13:26 -33.32723 151.77974 26032 ft 400 kts 18°
2026-04-25 13:26 -33.30019 151.78845 26486 ft 404 kts 18°
2026-04-25 13:26 -33.27282 151.79729 26935 ft 407 kts 18°
2026-04-25 13:26 -33.24549 151.80611 27367 ft 411 kts 18°
2026-04-25 13:27 -33.21781 151.81503 27795 ft 414 kts 18°
2026-04-25 13:27 -33.18984 151.82405 28216 ft 417 kts 18°
2026-04-25 13:27 -33.16198 151.83302 28614 ft 420 kts 18°
2026-04-25 13:27 -33.13341 151.84221 29007 ft 424 kts 18°
2026-04-25 13:28 -33.10506 151.85132 29382 ft 427 kts 18°
2026-04-25 13:28 -33.08569 151.85753 29625 ft 429 kts 18°
2026-04-25 13:28 -33.04710 151.86990 30079 ft 434 kts 18°
2026-04-25 13:28 -33.01797 151.87927 30441 ft 437 kts 18°
2026-04-25 13:29 -32.98850 151.88875 30840 ft 438 kts 18°
2026-04-25 13:29 -32.95920 151.89813 31211 ft 440 kts 18°
2026-04-25 13:29 -32.92933 151.90770 31551 ft 443 kts 18°
2026-04-25 13:30 -32.86969 151.92679 32216 ft 448 kts 18°
2026-04-25 13:30 -32.83920 151.93651 32584 ft 449 kts 18°
2026-04-25 13:30 -32.80948 151.94600 33012 ft 448 kts 18°
2026-04-25 13:31 -32.74937 151.96518 33883 ft 445 kts 17°
2026-04-25 13:31 -32.71964 151.97466 34327 ft 444 kts 17°
2026-04-25 13:31 -32.68971 151.98419 34765 ft 443 kts 17°
2026-04-25 13:31 -32.66026 151.99356 35180 ft 442 kts 17°
2026-04-25 13:32 -32.63054 152.00302 35562 ft 442 kts 17°
2026-04-25 13:32 -32.60080 152.01248 35892 ft 443 kts 17°
2026-04-25 13:32 -32.57084 152.02200 36172 ft 444 kts 17°
2026-04-25 13:32 -32.54120 152.03142 36398 ft 446 kts 17°
2026-04-25 13:33 -32.51114 152.04097 36656 ft 448 kts 17°
2026-04-25 13:33 -32.48087 152.05058 36926 ft 449 kts 16°
2026-04-25 13:33 -32.45090 152.06007 37190 ft 450 kts 16°
2026-04-25 13:33 -32.43043 152.06654 37317 ft 451 kts 16°
2026-04-25 13:34 -32.38999 152.07928 37326 ft 453 kts 16°
2026-04-25 13:34 -32.32890 152.09854 37332 ft 455 kts 17°
2026-04-25 13:35 -32.26774 152.11784 37335 ft 456 kts 17°
2026-04-25 13:35 -32.20678 152.13707 37331 ft 456 kts 17°
2026-04-25 13:36 -32.14526 152.15643 37336 ft 457 kts 17°
2026-04-25 13:36 -32.08393 152.17570 37337 ft 457 kts 17°
2026-04-25 13:37 -32.02272 152.19492 37332 ft 457 kts 17°
2026-04-25 13:37 -31.96087 152.21429 37329 ft 458 kts 17°
2026-04-25 13:38 -31.89935 152.23354 37331 ft 458 kts 17°
2026-04-25 13:38 -31.83765 152.25282 37325 ft 459 kts 17°
2026-04-25 13:39 -31.77607 152.27205 37327 ft 459 kts 17°
2026-04-25 13:39 -31.71428 152.29129 37334 ft 460 kts 17°
2026-04-25 13:40 -31.65265 152.31047 37328 ft 460 kts 17°
2026-04-25 13:40 -31.59048 152.32979 37334 ft 461 kts 17°
2026-04-25 13:41 -31.52872 152.34895 37338 ft 461 kts 17°
2026-04-25 13:41 -31.46654 152.36822 37332 ft 461 kts 17°
2026-04-25 13:42 -31.40449 152.38742 37341 ft 463 kts 17°
2026-04-25 13:42 -31.34222 152.40666 37334 ft 463 kts 17°
2026-04-25 13:43 -31.28000 152.42587 37338 ft 464 kts 17°
2026-04-25 13:43 -31.21644 152.44548 37334 ft 477 kts 17°
2026-04-25 13:44 -31.15160 152.46544 37335 ft 485 kts 17°
2026-04-25 13:44 -31.08645 152.48544 37325 ft 485 kts 17°
2026-04-25 13:45 -31.02106 152.50552 37331 ft 487 kts 17°
2026-04-25 13:45 -30.95584 152.52551 37323 ft 488 kts 17°
2026-04-25 13:46 -30.89017 152.54559 37323 ft 489 kts 17°
2026-04-25 13:46 -30.82412 152.56578 37324 ft 488 kts 17°
2026-04-25 13:47 -30.75925 152.58777 37316 ft 488 kts 19°
2026-04-25 13:47 -30.69430 152.61140 37314 ft 489 kts 19°
2026-04-25 13:48 -30.62937 152.63501 37322 ft 489 kts 19°
2026-04-25 13:48 -30.56444 152.65855 37330 ft 489 kts 19°
2026-04-25 13:49 -30.49955 152.68199 37323 ft 490 kts 19°
2026-04-25 13:49 -30.43423 152.70561 37313 ft 490 kts 19°
2026-04-25 13:50 -30.36921 152.72905 37322 ft 491 kts 19°
2026-04-25 13:50 -30.30416 152.75246 37314 ft 491 kts 19°
2026-04-25 13:51 -30.23876 152.77597 37320 ft 491 kts 19°
2026-04-25 13:51 -30.17360 152.79938 37322 ft 491 kts 19°
2026-04-25 13:52 -30.10842 152.82277 37321 ft 492 kts 19°
2026-04-25 13:52 -30.04304 152.84619 37325 ft 492 kts 19°
2026-04-25 13:53 -29.97751 152.86963 37305 ft 492 kts 19°
2026-04-25 13:53 -29.91208 152.89299 37303 ft 493 kts 19°
2026-04-25 13:54 -29.84656 152.91632 37285 ft 494 kts 19°
2026-04-25 13:54 -29.78109 152.93964 37287 ft 495 kts 19°
2026-04-25 13:55 -29.71502 152.96313 37282 ft 495 kts 19°
2026-04-25 13:55 -29.64920 152.98650 37283 ft 495 kts 19°
2026-04-25 13:56 -29.58338 153.00986 37281 ft 495 kts 18°
2026-04-25 13:56 -29.51792 153.03302 37278 ft 495 kts 19°
2026-04-25 13:57 -29.45221 153.05627 37276 ft 496 kts 18°
2026-04-25 13:57 -29.38616 153.07959 37282 ft 495 kts 19°
2026-04-25 13:58 -29.32015 153.10234 37280 ft 496 kts 16°
2026-04-25 13:58 -29.25220 153.11792 37280 ft 497 kts
2026-04-25 13:59 -29.18369 153.12535 36993 ft 500 kts
2026-04-25 13:59 -29.14885 153.12865 36170 ft 503 kts
2026-04-25 13:59 -29.11407 153.13193 35400 ft 504 kts
2026-04-25 13:59 -29.07854 153.13533 34651 ft 504 kts
2026-04-25 14:00 -29.04384 153.13872 33931 ft 504 kts
2026-04-25 14:00 -29.00893 153.14217 33477 ft 498 kts
2026-04-25 14:00 -28.97491 153.14552 33046 ft 492 kts
2026-04-25 14:00 -28.94088 153.14891 32601 ft 487 kts
2026-04-25 14:01 -28.90721 153.15224 32150 ft 483 kts
2026-04-25 14:01 -28.87381 153.15555 31693 ft 478 kts
2026-04-25 14:01 -28.84103 153.15878 31246 ft 473 kts
2026-04-25 14:01 -28.80817 153.16203 30795 ft 469 kts
2026-04-25 14:02 -28.77622 153.16518 30341 ft 464 kts
2026-04-25 14:02 -28.74407 153.16836 29885 ft 460 kts
2026-04-25 14:02 -28.71223 153.17152 29418 ft 455 kts
2026-04-25 14:02 -28.69164 153.17355 29098 ft 452 kts
2026-04-25 14:03 -28.64987 153.17767 28504 ft 446 kts
2026-04-25 14:03 -28.61911 153.18071 28048 ft 441 kts
2026-04-25 14:03 -28.58871 153.18370 27606 ft 437 kts
2026-04-25 14:03 -28.55885 153.18663 27176 ft 432 kts
2026-04-25 14:04 -28.52887 153.18957 26731 ft 427 kts
2026-04-25 14:04 -28.49941 153.19246 26295 ft 423 kts
2026-04-25 14:04 -28.47015 153.19534 25854 ft 419 kts
2026-04-25 14:04 -28.44121 153.19818 25420 ft 414 kts
2026-04-25 14:05 -28.41278 153.20096 24996 ft 410 kts
2026-04-25 14:05 -28.38433 153.20373 24567 ft 406 kts
2026-04-25 14:05 -28.35635 153.20648 24145 ft 402 kts
2026-04-25 14:05 -28.32856 153.20921 23723 ft 399 kts
2026-04-25 14:06 -28.30100 153.21191 23304 ft 395 kts
2026-04-25 14:06 -28.27387 153.21457 22887 ft 392 kts
2026-04-25 14:06 -28.24673 153.21721 22470 ft 389 kts
2026-04-25 14:06 -28.22000 153.21982 22061 ft 387 kts
2026-04-25 14:07 -28.19338 153.22296 21639 ft 383 kts
2026-04-25 14:07 -28.16681 153.22742 21209 ft 380 kts 10°
2026-04-25 14:07 -28.14068 153.23196 20779 ft 378 kts 11°
2026-04-25 14:07 -28.11476 153.23651 20350 ft 376 kts 11°
2026-04-25 14:08 -28.08904 153.24101 19919 ft 374 kts 11°
2026-04-25 14:08 -28.06347 153.24545 19503 ft 372 kts 11°
2026-04-25 14:08 -28.03802 153.24986 19079 ft 370 kts 11°
2026-04-25 14:08 -28.01271 153.25426 18658 ft 368 kts 11°
2026-04-25 14:09 -27.98734 153.25864 18229 ft 366 kts 11°
2026-04-25 14:09 -27.96242 153.26296 17820 ft 364 kts 11°
2026-04-25 14:09 -27.93739 153.26729 17389 ft 362 kts 11°
2026-04-25 14:09 -27.92063 153.27017 17096 ft 361 kts 11°
2026-04-25 14:10 -27.88761 153.27588 16534 ft 359 kts 11°
2026-04-25 14:10 -27.86316 153.28011 16130 ft 357 kts 11°
2026-04-25 14:10 -27.83866 153.28433 15705 ft 355 kts 12°
2026-04-25 14:10 -27.81416 153.28856 15272 ft 354 kts 12°
2026-04-25 14:11 -27.78976 153.29275 14835 ft 352 kts 12°
2026-04-25 14:11 -27.76588 153.29688 14414 ft 350 kts 12°
2026-04-25 14:11 -27.74167 153.30106 13992 ft 348 kts 12°
2026-04-25 14:11 -27.71790 153.30516 13562 ft 346 kts 12°
2026-04-25 14:12 -27.69425 153.30924 13133 ft 344 kts 12°
2026-04-25 14:12 -27.67056 153.31332 12713 ft 342 kts 12°
2026-04-25 14:12 -27.64705 153.31720 12308 ft 341 kts 10°
2026-04-25 14:12 -27.62351 153.31926 12048 ft 335 kts
2026-04-25 14:13 -27.60053 153.32040 12078 ft 323 kts
2026-04-25 14:13 -27.57800 153.32146 12085 ft 322 kts
2026-04-25 14:13 -27.55559 153.32253 12039 ft 323 kts
2026-04-25 14:13 -27.53311 153.32359 11656 ft 324 kts
2026-04-25 14:14 -27.51079 153.32466 11273 ft 322 kts
2026-04-25 14:14 -27.48859 153.32570 10873 ft 312 kts
2026-04-25 14:14 -27.46737 153.32669 10492 ft 304 kts
2026-04-25 14:14 -27.44639 153.32768 10123 ft 298 kts
2026-04-25 14:15 -27.42586 153.32866 9991 ft 288 kts
2026-04-25 14:15 -27.41933 153.32898 9957 ft 286 kts
2026-04-25 14:15 -27.38617 153.33058 9459 ft 286 kts
2026-04-25 14:15 -27.36625 153.33200 9109 ft 285 kts 13°
2026-04-25 14:16 -27.34730 153.33710 8852 ft 278 kts 25°
2026-04-25 14:16 -27.32930 153.34564 8830 ft 278 kts 29°
2026-04-25 14:16 -27.31175 153.35474 8487 ft 279 kts 30°
2026-04-25 14:16 -27.29426 153.36389 8125 ft 280 kts 30°
2026-04-25 14:17 -27.27639 153.37318 7760 ft 280 kts 30°
2026-04-25 14:17 -27.25882 153.38226 7421 ft 280 kts 30°
2026-04-25 14:17 -27.24104 153.39142 7073 ft 280 kts 29°
2026-04-25 14:17 -27.22340 153.40044 6715 ft 279 kts 30°
2026-04-25 14:18 -27.20517 153.40822 6334 ft 285 kts 14°
2026-04-25 14:18 -27.18528 153.40610 5977 ft 295 kts 341°
2026-04-25 14:18 -27.16819 153.39339 5659 ft 298 kts 321°
2026-04-25 14:18 -27.15281 153.37773 5313 ft 299 kts 319°
2026-04-25 14:19 -27.13768 153.36197 5103 ft 293 kts 316°
2026-04-25 14:19 -27.12660 153.34332 4937 ft 287 kts 287°
2026-04-25 14:19 -27.12589 153.32150 4711 ft 275 kts 251°
2026-04-25 14:19 -27.13421 153.30309 4514 ft 263 kts 231°
2026-04-25 14:20 -27.14429 153.28632 4457 ft 245 kts 232°
2026-04-25 14:20 -27.15007 153.27597 4433 ft 231 kts 234°
2026-04-25 14:20 -27.16082 153.25676 4353 ft 202 kts 218°
2026-04-25 14:20 -27.17185 153.24829 4162 ft 189 kts 199°
2026-04-25 14:21 -27.18375 153.24211 3976 ft 186 kts 197°
2026-04-25 14:21 -27.19562 153.23612 3847 ft 187 kts 198°
2026-04-25 14:21 -27.20735 153.22990 3608 ft 186 kts 198°
2026-04-25 14:21 -27.21882 153.22359 3367 ft 185 kts 199°
2026-04-25 14:22 -27.23045 153.21699 3118 ft 184 kts 199°
2026-04-25 14:22 -27.24170 153.21054 2929 ft 177 kts 200°
2026-04-25 14:22 -27.25243 153.20432 2695 ft 169 kts 199°
2026-04-25 14:22 -27.26262 153.19842 2452 ft 163 kts 199°
2026-04-25 14:23 -27.27260 153.19267 2212 ft 156 kts 199°
2026-04-25 14:23 -27.28193 153.18730 2020 ft 146 kts 198°
2026-04-25 14:23 -27.29064 153.18230 1825 ft 137 kts 198°
2026-04-25 14:23 -27.29879 153.17761 1630 ft 127 kts 198°
2026-04-25 14:24 -27.30658 153.17317 1475 ft 125 kts 198°
2026-04-25 14:24 -27.31445 153.16870 1322 ft 124 kts 199°
2026-04-25 14:24 -27.32215 153.16431 1167 ft 124 kts 200°
2026-04-25 14:24 -27.32985 153.15991 1010 ft 123 kts 201°
2026-04-25 14:25 -27.33745 153.15558 852 ft 123 kts 201°
2026-04-25 14:25 -27.34515 153.15137 677 ft 122 kts 202°
2026-04-25 14:25 -27.35276 153.14706 503 ft 121 kts 205°
2026-04-25 14:25 -27.35777 153.14415 425 ft 121 kts 204°
2026-04-25 14:26 -27.36771 153.13834 210 ft 121 kts 205°
2026-04-25 14:26 -27.37521 153.13402 61 ft 119 kts 206°
2026-04-25 14:26 -27.38222 153.13003 21 ft 94 kts 207°
2026-04-25 14:26 -27.38651 153.12756 21 ft 44 kts 208°
2026-04-25 14:27 -27.38856 153.12620 21 ft 31 kts 217°
2026-04-25 14:27 -27.39006 153.12454 21 ft 29 kts 234°
2026-04-25 14:27 -27.39099 153.12294 21 ft 21 kts 237°
2026-04-25 14:27 -27.39187 153.12216 21 ft 16 kts 204°
2026-04-25 14:28 -27.39293 153.12160 21 ft 17 kts 208°
2026-04-25 14:28 -27.39400 153.12097 21 ft 17 kts 207°
2026-04-25 14:28 -27.39511 153.12035 21 ft 18 kts 207°
2026-04-25 14:28 -27.39625 153.11969 21 ft 18 kts 206°
2026-04-25 14:29 -27.39741 153.11902 21 ft 18 kts 207°
2026-04-25 14:29 -27.39859 153.11833 21 ft 19 kts 207°
2026-04-25 14:29 -27.39979 153.11765 21 ft 19 kts 207°
2026-04-25 14:29 -27.40101 153.11694 21 ft 19 kts 207°
2026-04-25 14:30 -27.40220 153.11626 21 ft 16 kts 208°
2026-04-25 14:30 -27.40310 153.11438 21 ft 16 kts 204°
2026-04-25 14:30 -27.40415 153.11379 21 ft 17 kts 207°
2026-04-25 14:31 -27.40524 153.11316 21 ft 17 kts 208°
2026-04-25 14:31 -27.40636 153.11252 21 ft 18 kts 206°
2026-04-25 14:31 -27.40753 153.11189 21 ft 18 kts 207°
2026-04-25 14:31 -27.40863 153.11112 21 ft 19 kts 222°
2026-04-25 14:32 -27.40938 153.10991 21 ft 19 kts 255°
2026-04-25 14:32 -27.40908 153.10846 21 ft 19 kts 294°
2026-04-25 14:32 -27.40883 153.10692 21 ft 20 kts 264°
2026-04-25 14:32 -27.40943 153.10547 21 ft 20 kts 232°
2026-04-25 14:33 -27.41040 153.10426 21 ft 20 kts 226°
2026-04-25 14:33 -27.41142 153.10309 21 ft 20 kts 226°
2026-04-25 14:33 -27.41243 153.10191 21 ft 21 kts 226°
2026-04-25 14:33 -27.41345 153.10071 21 ft 21 kts 226°
2026-04-25 14:34 -27.41446 153.09952 21 ft 21 kts 226°
2026-04-25 14:34 -27.41564 153.09876 21 ft 20 kts 160°
2026-04-25 14:34 -27.41669 153.09979 21 ft 20 kts 136°
2026-04-25 14:34 -27.41756 153.10039 21 ft 12 kts 202°
2026-04-25 14:35 -27.41831 153.10004 21 ft 6 kts 167°
2026-04-25 14:35 -27.41842 153.10011 21 ft 0 kts 134°